(19796) = 2000 RX50 = 1978 WV17 = 1985 SQ1 = 1985 QY5 = 1985 RD5

Discovered at Socorro on 2000-09-05 by LINEAR.

Orbit

Orbit type: Main Belt

Note: WebGL enabled browser required.

epoch2024-03-31.0
epoch JD2460400.5
perihelion date2022-04-29.66940
perihelion JD2459699.16940
argument of perihelion (°)259.92072
ascending node (°)71.99666
inclination (°)3.07056
eccentricity0.2184382
perihelion distance (AU)1.8594800
Tisserand w.r.t. Jupiter3.5
ΔV w.r.t. Earth (km/sec)8.5
semimajor axis (AU)2.3791849
mean anomaly (°)188.35812
mean daily motion (°/day)0.26857250
aphelion distance (AU)2.899
period (years)3.67
P-vector [x]0.88092539
P-vector [y]-0.41052021
P-vector [z]-0.23546467
Q-vector [x]0.47050532
Q-vector [y]0.81326687
Q-vector [z]0.34237662
absolute magnitude15.16
phase slope0.15
uncertainty0
referenceMPEC 2024-F02
observations used2059
oppositions21
arc length (days)16541
first opposition used1978
last opposition used2024
residual rms (arc-secs)0.62
perturbers coarse indicatorM-v
perturbers precise indicator003Ek
first observation date used1978-12-01.0
last observation date used2024-03-15.0
computer nameMPCLINUX
JD of orbit computation2456877.764317
perihelion JD uncertainty (days)3.7731E-05
argument of perihelion uncertainty (°)7.1821E-05
ascending node uncertainty (°)7.1191E-05
inclination uncertainty (°)4.0748E-06
eccentricity uncertainty 3.2963E-08
perihelion distance uncertainty (AU)8.1209E-08
Minimum Orbit Intersection Distances (in AU)
for orbit epoch: 2460400.5, reference: E2024-G95
Mercury1.45225
Venus1.13158
Earth0.8518
Mars0.47858
Jupiter2.45786
Saturn6.30605
Uranus15.5521
Neptune27.4067

Observations

2123 total observations over interval: 1978 11 30.26007 – 2024 03 15.386142
These data are available for download (format description).

Date (UT) J2000 RA J2000 Dec Magn Location Ref
1978 11 30.26007 03 31 03.62 +17 53 36.1 18.2 V 675 – Palomar Mountain MPC 19755
1978 12 01.27691 03 30 03.41 +17 51 58.9   675 – Palomar Mountain MPC 19755
1985 08 24.94771 23 17 25.36 -11 44 21.5 17.0   095 – Crimea-Nauchnyi MPC 14103
1985 09 11.89236 23 03 31.26 -13 11 33.5 17.5   095 – Crimea-Nauchnyi MPC 14105
1985 09 19.86502 22 57 36.56 -13 35 30.9 17.3   095 – Crimea-Nauchnyi MPC 14106
1999 03 25.37317 14 23 10.68 -10 36 50.8 18.6 R 699 – Lowell Observatory-LONEOS MPS 59360
1999 03 25.39356 14 23 10.12 -10 36 47.3   699 – Lowell Observatory-LONEOS MPS 59360
1999 03 25.41397 14 23 09.42 -10 36 43.8   699 – Lowell Observatory-LONEOS MPS 59360
1999 04 11.38612 14 10 38.30 -09 32 38.3 18.9 R 699 – Lowell Observatory-LONEOS MPS 21096
1999 04 11.40652 14 10 37.09 -09 32 31.9   699 – Lowell Observatory-LONEOS MPS 21096
1999 04 11.42692 14 10 35.94 -09 32 26.8   699 – Lowell Observatory-LONEOS MPS 21096
1999 05 17.19999 13 37 16.91 -07 07 15.5 19.0   704 – Lincoln Laboratory ETS, New Mexico MPS 21096
1999 05 17.21219 13 37 16.48 -07 07 10.9 19.0   704 – Lincoln Laboratory ETS, New Mexico MPS 21096
1999 05 17.22440 13 37 15.85 -07 07 10.4 19.4   704 – Lincoln Laboratory ETS, New Mexico MPS 21096
1999 05 17.23663 13 37 15.25 -07 07 06.8 19.4   704 – Lincoln Laboratory ETS, New Mexico MPS 21096
2000 09 05.33071 03 40 24.38 +16 35 43.8 18.5   704 – Lincoln Laboratory ETS, New Mexico MPS 18475
2000 09 05.35692 03 40 25.56 +16 35 48.1 18.7   704 – Lincoln Laboratory ETS, New Mexico MPS 18475
2000 09 05.36996 03 40 26.20 +16 35 50.8 18.9   704 – Lincoln Laboratory ETS, New Mexico MPS 18475
2000 09 05.38304 03 40 26.81 +16 35 53.0 18.1   704 – Lincoln Laboratory ETS, New Mexico MPS 18475
2000 09 06.33624 03 41 12.54 +16 38 25.2 19.0   704 – Lincoln Laboratory ETS, New Mexico MPS 18475
2000 09 06.34988 03 41 13.16 +16 38 27.3 18.7   704 – Lincoln Laboratory ETS, New Mexico MPS 18475
2000 09 06.36311 03 41 13.79 +16 38 29.5 18.1   704 – Lincoln Laboratory ETS, New Mexico MPS 18475
2000 09 06.37617 03 41 14.40 +16 38 32.1 18.3   704 – Lincoln Laboratory ETS, New Mexico MPS 18475
2000 09 09.38204 03 43 27.68 +16 45 56.7 18.5 R 699 – Lowell Observatory-LONEOS MPS 30637
2000 09 09.39745 03 43 28.33 +16 45 58.6   699 – Lowell Observatory-LONEOS MPS 30637
2000 09 09.41290 03 43 28.95 +16 46 01.5   699 – Lowell Observatory-LONEOS MPS 30637
2000 09 09.42834 03 43 29.55 +16 46 03.9   699 – Lowell Observatory-LONEOS MPS 30637
2000 09 11.46641 03 44 50.43 +16 50 34.8   699 – Lowell Observatory-LONEOS MPS 30637
2000 09 11.47339 03 44 50.60 +16 50 36.0   699 – Lowell Observatory-LONEOS MPS 30637
2000 09 11.48032 03 44 50.80 +16 50 35.4   699 – Lowell Observatory-LONEOS MPS 30637
2000 09 24.39314 03 50 11.05 +17 09 46.4 18.1 R 699 – Lowell Observatory-LONEOS MPS 30637
2000 09 24.41563 03 50 11.24 +17 09 47.9   699 – Lowell Observatory-LONEOS MPS 30637
2000 09 24.43813 03 50 11.41 +17 09 49.1   699 – Lowell Observatory-LONEOS MPS 30637
2000 09 24.46064 03 50 11.63 +17 09 50.1   699 – Lowell Observatory-LONEOS MPS 30637
2000 10 21.93161 03 41 14.58 +16 59 18.9 18.7   120 – Visnjan MPS 21096
2000 10 21.95874 03 41 13.18 +16 59 19.9   120 – Visnjan MPS 21096
2000 10 21.98162 03 41 12.06 +16 59 17.5   120 – Visnjan MPS 21096
2000 10 22.98438 03 40 23.01 +16 57 41.1 18.5   120 – Visnjan MPS 21096
2000 10 23.01147 03 40 21.51 +16 57 38.1   120 – Visnjan MPS 21096
2000 10 23.03926 03 40 20.05 +16 57 35.3   120 – Visnjan MPS 21096
2000 10 24.03165 03 39 29.60 +16 55 57.9 18.6   120 – Visnjan MPS 21096
2000 10 24.04551 03 39 28.88 +16 55 56.8   120 – Visnjan MPS 21096
2000 10 24.39714 03 39 10.55 +16 55 22.8 18.7   704 – Lincoln Laboratory ETS, New Mexico MPS 21096
2000 10 24.41060 03 39 09.74 +16 55 21.2 19.0   704 – Lincoln Laboratory ETS, New Mexico MPS 21096
2000 10 24.42402 03 39 09.02 +16 55 19.2 18.9   704 – Lincoln Laboratory ETS, New Mexico MPS 21096
2000 10 24.43745 03 39 08.31 +16 55 17.4 18.6   704 – Lincoln Laboratory ETS, New Mexico MPS 21096
2000 10 24.45089 03 39 07.54 +16 55 15.5 18.3   704 – Lincoln Laboratory ETS, New Mexico MPS 21096
2000 10 26.37084 03 37 24.50 +16 51 53.0 17.9   704 – Lincoln Laboratory ETS, New Mexico MPS 21096
2000 10 26.38501 03 37 23.59 +16 51 51.1 18.8   704 – Lincoln Laboratory ETS, New Mexico MPS 21096
2000 10 26.39919 03 37 22.83 +16 51 50.3 17.0   704 – Lincoln Laboratory ETS, New Mexico MPS 21096
2000 10 26.41289 03 37 22.06 +16 51 48.5 17.4   704 – Lincoln Laboratory ETS, New Mexico MPS 21096
2000 10 26.42736 03 37 21.20 +16 51 48.0 17.8   704 – Lincoln Laboratory ETS, New Mexico MPS 21096
2000 10 29.41478 03 34 30.03 +16 46 02.1 17.8 V 691 – Steward Observatory, Kitt Peak-Spacewatch MPS 21096
2000 10 29.43796 03 34 28.60 +16 45 59.3 18.2 V 691 – Steward Observatory, Kitt Peak-Spacewatch MPS 21096
2000 10 29.46063 03 34 27.20 +16 45 56.4 18.1 V 691 – Steward Observatory, Kitt Peak-Spacewatch MPS 21096
2000 11 01.28019 03 31 36.20 +16 40 05.5 17.6   704 – Lincoln Laboratory ETS, New Mexico MPS 21096
2000 11 01.29409 03 31 35.32 +16 40 04.0 18.0   704 – Lincoln Laboratory ETS, New Mexico MPS 21096
2000 11 01.30796 03 31 34.43 +16 40 02.4 18.0   704 – Lincoln Laboratory ETS, New Mexico MPS 21096
2000 11 01.32183 03 31 33.54 +16 39 59.7 18.2   704 – Lincoln Laboratory ETS, New Mexico MPS 21096
2000 11 01.33569 03 31 32.63 +16 39 58.3 18.1   704 – Lincoln Laboratory ETS, New Mexico MPS 21096
2000 11 02.28135 03 30 33.52 +16 37 55.9 18.1   704 – Lincoln Laboratory ETS, New Mexico MPS 21096
2000 11 02.29498 03 30 32.59 +16 37 54.3 18.7   704 – Lincoln Laboratory ETS, New Mexico MPS 21096
2000 11 02.30853 03 30 31.73 +16 37 51.6 18.9   704 – Lincoln Laboratory ETS, New Mexico MPS 21096
2000 11 02.32208 03 30 30.82 +16 37 50.5 18.0   704 – Lincoln Laboratory ETS, New Mexico MPS 21096
2000 11 02.33565 03 30 29.90 +16 37 48.5 18.0   704 – Lincoln Laboratory ETS, New Mexico MPS 21096
2000 11 18.33189 03 13 04.01 +16 01 19.3 17.3 R 699 – Lowell Observatory-LONEOS MPS 26238
2000 11 18.35155 03 13 02.73 +16 01 17.2   699 – Lowell Observatory-LONEOS MPS 26238
2000 11 18.37122 03 13 01.41 +16 01 14.4   699 – Lowell Observatory-LONEOS MPS 26238
2000 11 18.39095 03 13 00.11 +16 01 11.0   699 – Lowell Observatory-LONEOS MPS 26238
2000 11 21.28904 03 09 59.65 +15 55 04.8 17.4   704 – Lincoln Laboratory ETS, New Mexico MPS 22434
2000 11 21.30366 03 09 58.71 +15 55 03.2 18.1   704 – Lincoln Laboratory ETS, New Mexico MPS 22434
2000 11 21.31827 03 09 57.82 +15 55 01.1 17.5   704 – Lincoln Laboratory ETS, New Mexico MPS 22434
2000 11 21.33289 03 09 56.87 +15 54 59.4 17.6   704 – Lincoln Laboratory ETS, New Mexico MPS 22434
2000 11 21.34749 03 09 55.92 +15 54 57.5 17.6   704 – Lincoln Laboratory ETS, New Mexico MPS 22434
2000 11 27.21930 03 04 17.99 +15 44 08.5 18.4   704 – Lincoln Laboratory ETS, New Mexico MPS 22434
2000 11 27.23372 03 04 17.20 +15 44 06.7 18.6   704 – Lincoln Laboratory ETS, New Mexico MPS 22434
2000 11 27.24813 03 04 16.41 +15 44 05.1 19.0   704 – Lincoln Laboratory ETS, New Mexico MPS 22434
2000 11 27.25683 03 04 15.85 +15 44 04.4 18.1   704 – Lincoln Laboratory ETS, New Mexico MPS 22434
2000 11 27.26255 03 04 15.55 +15 44 02.6 19.2   704 – Lincoln Laboratory ETS, New Mexico MPS 22434
2000 11 27.27496 03 04 14.83 +15 44 03.3 18.3   704 – Lincoln Laboratory ETS, New Mexico MPS 22434
2000 11 27.27697 03 04 14.78 +15 44 02.0 18.9   704 – Lincoln Laboratory ETS, New Mexico MPS 22434
2000 11 27.29248 03 04 13.78 +15 44 01.2 18.2   704 – Lincoln Laboratory ETS, New Mexico MPS 22434
2000 11 27.31074 03 04 12.75 +15 43 59.4 18.0   704 – Lincoln Laboratory ETS, New Mexico MPS 22434
2000 11 27.33188 03 04 11.70 +15 43 56.8 18.6   704 – Lincoln Laboratory ETS, New Mexico MPS 22434
2000 12 30.09843 02 51 06.27 +15 50 38.9 18.6 R 699 – Lowell Observatory-LONEOS MPS 24710
2000 12 30.11560 02 51 06.35 +15 50 40.6   699 – Lowell Observatory-LONEOS MPS 24710
2000 12 30.13278 02 51 06.47 +15 50 43.5   699 – Lowell Observatory-LONEOS MPS 24710
2000 12 30.14996 02 51 06.67 +15 50 46.3   699 – Lowell Observatory-LONEOS MPS 24710
